When you browse on this site, cookies collect data to enhance your experience and personalize the content and advertising you see.
Visit our Privacy Policy to learn more. By continuing to use the site, you agree to this use of cookies and data.
  • In Lithuania
  • List of Countries
  • For 7 days
  • Water Temperature
  • Weather Map
  • Weather Widgets
  • user-avatar
    Login

    Hourly Weather Bregenz

    Today, 13 November, Wednesday

    Time Temperature Precipitation Wind Pressure Humidity
    00:00 -3°C° 0.1 mm 1 mps 634 mmHg 95%
    01:00 -3°C° 0.1 mm 1 mps 634 mmHg 95%
    02:00 -3°C° 0.2 mm 1 mps 634 mmHg 95%
    03:00 -4°C° 0.2 mm 0 mps 634 mmHg 95%
    04:00 -4°C° 0.2 mm 0 mps 634 mmHg 96%
    05:00 -3°C° 0.1 mm 1 mps 634 mmHg 96%
    06:00 -3°C° 0.1 mm 1 mps 634 mmHg 96%
    07:00 -3°C° 0.1 mm 1 mps 634 mmHg 96%
    08:00 -2°C° 0.1 mm 1 mps 634 mmHg 95%
    09:00 -2°C° 0.1 mm 1 mps 634 mmHg 94%
    10:00 -2°C° 0.1 mm 1 mps 634 mmHg 93%
    11:00 -3°C° 0.1 mm 2 mps 635 mmHg 90%
    12:00 -3°C° 0.1 mm 2 mps 635 mmHg 88%
    13:00 -2°C° 0 mm 2 mps 635 mmHg 82%
    14:00 -2°C° 0 mm 2 mps 635 mmHg 83%
    15:00 -1°C° 0 mm 1 mps 635 mmHg 85%
    16:00 -1°C° 0 mm 1 mps 636 mmHg 86%
    17:00 -2°C° 0 mm 1 mps 636 mmHg 87%
    18:00 -3°C° 0 mm 1 mps 636 mmHg 88%
    19:00 -7°C° 0 mm 2 mps 636 mmHg 88%
    20:00 -7°C° 0 mm 2 mps 636 mmHg 87%
    21:00 -7°C° 0 mm 2 mps 636 mmHg 85%
    22:00 -8°C° 0 mm 2 mps 636 mmHg 83%
    23:00 -8°C° 0 mm 2 mps 636 mmHg 81%

    Tomorrow, 14 November, Thursday

    Time Temperature Precipitation Wind Pressure Humidity
    00:00 -8°C° 0 mm 2 mps 635 mmHg 79%
    01:00 -9°C° 0 mm 2 mps 635 mmHg 77%
    02:00 -9°C° 0 mm 2 mps 635 mmHg 74%
    03:00 -10°C° 0 mm 3 mps 634 mmHg 71%
    04:00 -10°C° 0 mm 3 mps 634 mmHg 69%
    05:00 -9°C° 0 mm 3 mps 634 mmHg 69%
    06:00 -8°C° 0 mm 3 mps 635 mmHg 69%
    07:00 -8°C° 0 mm 3 mps 635 mmHg 68%
    08:00 -5°C° 0 mm 2 mps 635 mmHg 67%
    09:00 -4°C° 0 mm 2 mps 636 mmHg 65%
    10:00 -2°C° 0 mm 2 mps 636 mmHg 64%
    11:00 -1°C° 0 mm 2 mps 636 mmHg 65%
    12:00 +1°C° 0 mm 2 mps 636 mmHg 65%
    13:00 +1°C° 0 mm 2 mps 636 mmHg 66%
    14:00 +1°C° 0 mm 2 mps 635 mmHg 69%
    15:00 -1°C° 0 mm 2 mps 635 mmHg 72%
    16:00 -1°C° 0 mm 2 mps 634 mmHg 76%
    17:00 -3°C° 0 mm 2 mps 634 mmHg 77%
    18:00 -5°C° 0 mm 3 mps 633 mmHg 78%
    19:00 -6°C° 0 mm 3 mps 633 mmHg 79%
    20:00 -6°C° 0 mm 3 mps 632 mmHg 78%
    21:00 -7°C° 0 mm 3 mps 632 mmHg 76%
    22:00 -7°C° 0 mm 3 mps 631 mmHg 75%
    23:00 -7°C° 0 mm 3 mps 631 mmHg 76%

    Day after tomorrow, 15 November, Friday

    Time Temperature Precipitation Wind Pressure Humidity
    00:00 -6°C° 0 mm 3 mps 630 mmHg 77%
    01:00 -6°C° 0 mm 3 mps 630 mmHg 78%
    02:00 -6°C° 0.3 mm 3 mps 630 mmHg 82%
    03:00 -5°C° 0.3 mm 3 mps 630 mmHg 85%
    04:00 -5°C° 0.3 mm 3 mps 630 mmHg 89%
    05:00 -4°C° 0.2 mm 2 mps 630 mmHg 90%
    06:00 -4°C° 0.2 mm 2 mps 631 mmHg 91%
    07:00 -4°C° 0.2 mm 2 mps 631 mmHg 92%
    08:00 -3°C° 0 mm 2 mps 632 mmHg 90%
    09:00 0°C° 0 mm 1 mps 633 mmHg 88%
    10:00 +1°C° 0 mm 1 mps 634 mmHg 86%
    11:00 +1°C° 0.1 mm 1 mps 634 mmHg 85%
    12:00 +1°C° 0.1 mm 1 mps 634 mmHg 84%
    13:00 +2°C° 0.1 mm 1 mps 634 mmHg 84%
    14:00 +1°C° 0.3 mm 1 mps 634 mmHg 87%
    15:00 0°C° 0.3 mm 1 mps 634 mmHg 91%
    16:00 -1°C° 0.3 mm 0 mps 634 mmHg 95%
    17:00 -2°C° 0.2 mm 0 mps 634 mmHg 96%
    18:00 -2°C° 0.2 mm 0 mps 634 mmHg 96%
    19:00 -2°C° 0.2 mm 0 mps 635 mmHg 97%
    20:00 -1°C° 0 mm 1 mps 635 mmHg 97%
    21:00 -1°C° 0 mm 1 mps 635 mmHg 97%
    22:00 -1°C° 0 mm 1 mps 635 mmHg 97%
    23:00 -2°C° 0 mm 1 mps 636 mmHg 96%

    16 November, Saturday

    Time Temperature Precipitation Wind Pressure Humidity
    00:00 -2°C° 0 mm 1 mps 636 mmHg 94%
    01:00 -2°C° 0 mm 1 mps 636 mmHg 93%
    02:00 -3°C° 0 mm 1 mps 635 mmHg 92%
    03:00 -3°C° 0 mm 1 mps 635 mmHg 91%
    04:00 -3°C° 0 mm 1 mps 635 mmHg 90%
    05:00 -3°C° 0 mm 1 mps 635 mmHg 89%
    06:00 -3°C° 0 mm 1 mps 636 mmHg 89%
    07:00 -3°C° 0 mm 1 mps 636 mmHg 88%
    08:00 -2°C° 0 mm 1 mps 637 mmHg 87%
    09:00 -1°C° 0 mm 1 mps 638 mmHg 85%
    10:00 0°C° 0 mm 1 mps 638 mmHg 83%
    11:00 +1°C° 0 mm 1 mps 639 mmHg 83%
    12:00 +2°C° 0 mm 1 mps 639 mmHg 82%
    13:00 +2°C° 0 mm 1 mps 640 mmHg 82%
    14:00 +2°C° 0 mm 1 mps 640 mmHg 84%
    15:00 +1°C° 0 mm 1 mps 640 mmHg 87%
    16:00 0°C° 0 mm 1 mps 639 mmHg 89%
    17:00 0°C° 0 mm 1 mps 640 mmHg 90%
    18:00 -1°C° 0 mm 1 mps 640 mmHg 90%
    19:00 -2°C° 0 mm 1 mps 640 mmHg 90%
    20:00 -2°C° 0 mm 1 mps 640 mmHg 89%
    21:00 -3°C° 0 mm 1 mps 640 mmHg 88%
    22:00 -3°C° 0 mm 1 mps 640 mmHg 87%
    23:00 -3°C° 0 mm 1 mps 640 mmHg 86%

    17 November, Sunday

    Time Temperature Precipitation Wind Pressure Humidity
    00:00 -3°C° 0 mm 1 mps 640 mmHg 85%
    01:00 -4°C° 0 mm 0 mps 639 mmHg 85%
    02:00 -4°C° 0 mm 0 mps 639 mmHg 86%
    03:00 -4°C° 0 mm 0 mps 638 mmHg 87%
    04:00 -4°C° 0 mm 0 mps 638 mmHg 87%
    05:00 -4°C° 0.3 mm 0 mps 638 mmHg 91%
    06:00 -4°C° 0.3 mm 0 mps 637 mmHg 94%
    07:00 -4°C° 0.3 mm 0 mps 637 mmHg 97%
    08:00 -2°C° 0.4 mm 1 mps 636 mmHg 96%
    09:00 -2°C° 0.4 mm 1 mps 636 mmHg 96%
    10:00 -1°C° 0.4 mm 1 mps 636 mmHg 95%
    11:00 -1°C° 0.9 mm 1 mps 635 mmHg 95%
    12:00 -1°C° 0.9 mm 1 mps 634 mmHg 96%
    13:00 -1°C° 0.9 mm 1 mps 633 mmHg 96%
    14:00 -1°C° 0.7 mm 1 mps 633 mmHg 96%
    15:00 -1°C° 0.7 mm 1 mps 632 mmHg 96%
    16:00 -1°C° 0.7 mm 1 mps 632 mmHg 96%
    17:00 -1°C° 0.1 mm 1 mps 632 mmHg 95%
    18:00 -2°C° 0.1 mm 1 mps 631 mmHg 95%
    19:00 -2°C° 0.1 mm 1 mps 631 mmHg 94%
    20:00 -3°C° 0 mm 1 mps 631 mmHg 93%
    21:00 -3°C° 0 mm 1 mps 631 mmHg 93%
    22:00 -3°C° 0 mm 1 mps 631 mmHg 93%
    23:00 -3°C° 0.1 mm 1 mps 632 mmHg 93%

    18 November, Monday

    Time Temperature Precipitation Wind Pressure Humidity
    00:00 -2°C° 0.1 mm 1 mps 632 mmHg 93%
    01:00 -2°C° 0.1 mm 1 mps 633 mmHg 93%
    02:00 -2°C° 0 mm 1 mps 633 mmHg 92%
    03:00 -3°C° 0 mm 1 mps 633 mmHg 92%
    04:00 -3°C° 0 mm 1 mps 633 mmHg 91%
    05:00 -3°C° 0 mm 1 mps 634 mmHg 91%
    06:00 -3°C° 0 mm 1 mps 634 mmHg 91%
    07:00 -5°C° 0 mm 2 mps 635 mmHg 91%
    08:00 -5°C° 0 mm 2 mps 635 mmHg 90%
    09:00 -4°C° 0 mm 2 mps 636 mmHg 88%
    10:00 -3°C° 0 mm 2 mps 636 mmHg 87%
    11:00 -3°C° 0 mm 2 mps 637 mmHg 85%
    12:00 -2°C° 0 mm 2 mps 637 mmHg 84%
    13:00 -1°C° 0 mm 2 mps 637 mmHg 83%
    14:00 -2°C° 0 mm 2 mps 637 mmHg 85%
    15:00 0°C° 0 mm 1 mps 637 mmHg 87%
    16:00 0°C° 0 mm 1 mps 637 mmHg 89%
    17:00 -1°C° 0.1 mm 1 mps 638 mmHg 90%
    18:00 -2°C° 0.1 mm 1 mps 638 mmHg 91%
    19:00 -2°C° 0.1 mm 1 mps 638 mmHg 92%
    20:00 -2°C° 0.1 mm 1 mps 639 mmHg 92%
    21:00 -2°C° 0.1 mm 1 mps 639 mmHg 93%
    22:00 -3°C° 0.1 mm 1 mps 639 mmHg 93%
    23:00 -3°C° 0.1 mm 1 mps 639 mmHg 93%
    Show more